Regional Weather Roundup
Issued by NWS Green Bay, WI

Home | Current Version | Previous Version | Graphics & Text | Print | Product List | Glossary Off
Versions: 1 2 3 4 5 6 7 8 9 10 11 12 13 14 15 16 17 18 19 20 21 22 23 24 25 26 27 28 29 30 31 32 33 34 35 36 37 38 39 40 41 42 43 44 45 46 47 48 49 50

000
ASUS43 KGRB 292211
RWRGRB

NORTH-CENTRAL AND NORTHEAST WISCONSIN REGIONAL WEATHER ROUNDUP
NATIONAL WEATHER SERVICE GREEN BAY WI
500 PM CDT MON JUN 29 2015

WIZ005-009-010>012-018-019-292300-
NORTH CENTRAL WISCONSIN

CITY           SKY/WX    TMP DP  RH WIND       PRES   REMARKS
IRONWOOD       NOT AVBL
MANITOWISH WTR CLOUDY    63  63  99 W5        29.77F
ARBOR VITAE    CLOUDY    62  59  90 NW5       29.77R
EAGLE RIVER    LGT RAIN  65  55  70 NW3       29.75F
LAND O LAKES   LGT RAIN  62  60  92 CALM      29.77S
RHINELANDER    CLOUDY    63  59  87 CALM      29.77F
PHILLIPS       CLOUDY    63  60  89 SW5       29.78S
ANTIGO         CLOUDY    68  62  82 SE8       29.76F
TOMAHAWK       LGT RAIN  60  58  94 CALM      29.79S
MERRILL        CLOUDY    63  61  93 CALM      29.78F
$$

WIZ013-073-292300-
NORTHEAST WISCONSIN

CITY           SKY/WX    TMP DP  RH WIND       PRES   REMARKS
IRON MOUNTAIN  PTSUNNY   72  62  71 S7        29.73F
MARINETTE      PTSUNNY   73  57  56 S5        29.74F
OCONTO         CLOUDY    74  60  61 NW7       29.75S
$$

WIZ017-030-035>037-045-292300-
CENTRAL WISCONSIN

CITY           SKY/WX    TMP DP  RH WIND       PRES   REMARKS
MEDFORD        DRIZZLE   59  58  95 W3        29.80F
WAUSAU         TSTM      63  59  87 NW12      29.78R
MOSINEE        LGT RAIN  61  59  94 W7        29.82R
MARSHFIELD     LGT RAIN  64  55  72 N12G20    29.81F
WISC RAPIDS    PTSUNNY   69  54  58 N20G25    29.83R
STEVENS POINT  CLOUDY    67  54  61 NW13G25   29.81R
WAUPACA        PTSUNNY   73  65  74 S6        29.78S
SHAWANO        CLOUDY    70  64  82 S5        29.77R
CLINTONVILLE   PTSUNNY  N/A N/A N/A S9G16     29.77S
$$

WIZ038-039-048-051-292300-
FOX VALLEY

CITY           SKY/WX    TMP DP  RH WIND       PRES   REMARKS
NWS GREEN BAY  TSTM      70  65  84 S7        29.78R
APPLETON       PTSUNNY   72  57  60 SW7       29.78S
OSHKOSH        MOSUNNY   74  61  63 SW7       29.77S
FOND DU LAC    MOSUNNY   74  63  68 SW7       29.78S
$$

WIZ022-050-052-292300-
EAST CENTRAL WISCONSIN

CITY           SKY/WX    TMP DP  RH WIND       PRES   REMARKS
STURGEON BAY   MOSUNNY   73  55  53 S16       29.78F
MANITOWOC      SUNNY     71  62  73 MISG      29.79S
SHEBOYGAN      SUNNY     74  60  61 S9        29.79S
$$

LMZ563-521-522-541>543-292300-
LAKESHORE

STATION/POSITION TIME  TEMP    WIND        PRES    VSBY  WAVE
                       AIR SEA DIR/SP/G                  HT/PER
                 (UTC) (F)     (DEG/KT/KT) (MB)    (MI)  (FT/S)
SHEBOYGAN LKSHOR 2200   61     170/ 11/ 12 1009.1R
KEWAUNEE LKSHORE 2100   64     180/  7/  9 1008.0F
ALGOMA MARINA    2110          200/  7/  8   N/A
TWO RIVERS CG    2055   64 63              1009.0      6   2
NORTHPORT PIER   2100   73     160/  6/ 11 1008.1S
N MID LAKE BUOY  2150   59 51  230/  6/  6 1008.2F         1
S GREEN BAY BUOY 2200   75 72  180/ 12/ 16 1008.9F
CHAMBERS ISLAND  2100   75     190/  5/ 12 1007.8S
MENOMINEE LKSHOR 2100   72     140/ 11/ 12 1008.3F
$$



USA.gov is the U.S. government's official web portal to all federal, state and local government web resources and services.